Regional Weather Roundup
Issued by NWS Pendleton, OR

Current Version | Previous Version | Text Only | Print | Product List | Glossary On
Versions: 1 2 3 4 5 6 7 8 9 10 11 12 13 14 15 16 17 18 19 20 21 22 23 24 25 26 27 28 29 30 31 32 33 34 35 36 37 38 39 40 41 42 43 44 45 46 47 48 49 50
000
ASUS46 KPDT 281025
RWRPDT
PENDLETON REGIONAL WEATHER ROUNDUP
NATIONAL WEATHER SERVICE PENDLETON OREGON
300 AM PDT SAT MAY 28 2016

NOTE: FAIR INDICATES FEW OR NO CLOUDS BELOW 12,000 FEET WITH NO
SIGNIFICANT WEATHER AND/OR OBSTRUCTIONS TO VISIBILITY.

# INDICATES UNOFFICIAL STATION AND DATA

WAZ520-281110-
EAST SLOPES OF WASHINGTON CASCADES

CITY            SKY/WX      TMP DP  RH  WIND    PRES   REMARKS
#CLE ELUM HS    N/A         42  35  76  W3      30.03S
#CLE ELUM 2NW   N/A         42  35  76  W2      N/A
#GLENWOOD       N/A         40  36  85  CALM    30.07S
#MANASTASH CYN  N/A         41  31  67  CALM    30.00S
#NELSON 3SW     N/A         39  35  85  CALM    30.26F
#NILE           N/A         40  35  82  CALM    29.32F
#RONALD 2NW     N/A         43  N/A N/A CALM    29.93S
#TEANAWAY 4NE   N/A         41  36  82  W1      N/A
#TROUT LAKE 1NE N/A         45  37  73  W3      30.08F
#TROUT LAKE 1E  N/A         44  38  79  CALM    30.04F
$$

WAZ521-281110-
SIMCOE HIGHLANDS

CITY            SKY/WX      TMP DP  RH  WIND    PRES   REMARKS
#CENTERVILLE 1SWN/A         40  34  79  CALM    30.05S
#GOLDENDALE 1NE N/A         43  27  53  CALM    N/A
#GOLDENDALE 4W  N/A         41  39  93  CALM    30.11S
#GOODNOE HILLS  N/A         48  38  68  NW14    29.96S WCI 42
#LYLE 6NE       N/A         46  39  76  S7      30.06F
$$

WAZ026-281110-
KITTITAS VALLEY

CITY            SKY/WX      TMP DP  RH  WIND    PRES   REMARKS
ELLENSBURG AP   CLOUDY      48  34  58  N12     30.05F WCI 43
#ELLENSBURG CWU N/A         46  36  68  N12     29.99S WCI 40
#ELLENSBURG 3NE N/A         45  36  70  N8      30.04F
#ELLENSBURG     N/A         49  40  71  NW5     N/A
#ELLENSBURG 1E  N/A         46  N/A N/A NW2     N/A
#ELLENSBURG 13S N/A         48  38  68  CALM    N/A
#KITTITAS 4N    N/A         45  34  65  SW7     30.06F
#KITTITAS 3S    N/A         46  37  71  NW5     30.02F
#THORP 6N       N/A         41  36  82  W7      30.07S
$$

WAZ027-281110-
YAKIMA VALLEY

CITY            SKY/WX      TMP DP  RH  WIND    PRES   REMARKS
SUNNYSIDE AP    MOCLDY      41  38  89  CALM    30.06R
YAKIMA AIRPORT  CLOUDY      54  34  47  N10     30.05S
YAKIMA-VAGABOND MOCLDY      49  36  61  NE2     30.03S
#DONALD 2NE     N/A         49  24  37  CALM    28.89S
#GRANDVIEW      N/A         46  36  68  CALM    30.06R
#MABTON         N/A         49  38  66  S3      30.05R
#NACHES 2SW     N/A         47  37  68  W6      30.05S
#TERRACE HTS    N/A         49  36  61  N2      29.99S
#TOPPENISH      N/A         51  37  59  CALM    29.96S
#WEST VALLEY    N/A         50  35  56  N7      30.02S
#WHITE SWAN 5E  N/A         50  37  61  E1      30.05R
#WILEY CITY 3W  N/A         42  33  70  CALM    30.01S
$$

WAZ028-281110-
LOWER COLUMBIA BASIN...WASHINGTON

CITY            SKY/WX      TMP DP  RH  WIND    PRES   REMARKS
PASCO           PTCLDY      50  39  66  SW6     30.06S
PROSSER AWOS    N/A         43  39  86  N2      30.08S
RICHLAND AWOS   PTCLDY      48  36  63  SW3     30.06S
#BENTON CITY    N/A         47  37  68  CALM    29.96S
#CONNELL 5N     N/A         43  37  79  SW1     30.02S
#CONNELL 5NW    N/A         44  38  79  S1      29.99R
#ELTOPIA 6NW    N/A         49  38  66  CALM    29.01S
#KAHLOTUS       N/A         47  36  65  W14     30.02S WCI 41
#KENNEWICK 3S   N/A         48  40  74  N5      30.05R
#PATERSON       N/A         49  40  71  CALM    30.04S
#SAGEMOOR 2W    N/A         50  36  58  CALM    29.90R
#TOUCHET 2S     N/A         53  40  61  SW9     30.03R
#WEST PASCO     N/A         48  35  60  CALM    30.12R
$$

WAZ029-281110-
FOOTHILLS OF THE BLUES...WASHINGTON

CITY            SKY/WX      TMP DP  RH  WIND    PRES   REMARKS
WALLA WALLA AP  MOCLDY      49  38  66  S8      30.07S
#CLYDE 6NW      N/A         46  39  76  S7      30.04R
#DAYTON SCHOOL  N/A         47  33  58  CALM    30.07S
#LOWDEN 2SE     N/A         51  41  68  CALM    30.04R
#PLEASANT VIEW 1N/A         42  37  82  S7      30.08R
#PRESCOTT       N/A         48  41  77  CALM    30.04S
#SUDBURY        N/A         62  N/A N/A CALM    N/A
#WHITMAN COLLEGEN/A         51  40  66  S2      30.11S
#WAITSBURG 5S   N/A         45  39  79  S5      30.15F
#WAITSBURG 8N   N/A         45  21  38  S1      29.91S
#WALLA WALLA U  N/A         52  41  66  CALM    30.06S
#WHITMAN MISSIONN/A         50  41  71  CALM    30.08S
$$

WAZ030-281110-
BLUE MOUNTAINS...WASHINGTON

CITY            SKY/WX      TMP DP  RH  WIND    PRES   REMARKS
#DIXIE 5SE      N/A         43  36  76  S7      29.99S
$$

ORZ009-041-WAZ024-281110-
COLUMBIA RIVER GORGE

CITY            SKY/WX      TMP DP  RH  WIND    PRES   REMARKS
THE DALLES AP   MOCLDY      53  37  54  W13     30.10F
#ARLINGTON AIRPON/A         49  38  66  SW7     30.07S
#CELILO DOT     N/A         54  37  52  SW8     N/A
#LYLE           N/A         53  42  66  NW8     30.11F
#MARYHILL 2W    N/A         51  40  66  CALM    N/A
#MOSIER 1S      N/A         49  30  48  W6      30.09S
#MURDOCK        N/A         54  42  64  W15     30.06F
#RUFUS DOT      N/A         54  38  55  W16     N/A
#SMITHVILLE     N/A         52  41  66  W12     30.03F

$$

ORZ510-281110-
NORTH CENTRAL OREGON

CITY            SKY/WX      TMP DP  RH  WIND    PRES   REMARKS
#ANTELOPE       N/A         36  33  89  CALM    29.98S
#CHENOWITH 1W   N/A         45  37  73  W32     N/A    WCI 35
#COW CYN RST AREN/A         42  N/A N/A W6      N/A
#DUFUR 9E       N/A         42  36  79  CALM    30.14S
#GRASS VALLEY   N/A         36  36  100 S1      N/A
#GRASS VALLEY 1SN/A         39  35  85  CALM    30.02F
#KENT DOT       N/A         40  32  73  N3      N/A
#MAUPIN SCHOOL  N/A         47  37  68  CALM    30.13S
#MORO SCHOOL    N/A         41  39  93  S3      30.09S
#SHANIKO 5WSW   N/A         40  30  67  W5      N/A
#SHANIKO 4NW    N/A         39  -61  1  W8      30.08S
#TYGH VALLEY 2NEN/A         41  36  82  CALM    30.09S
#WAPANITIA AIRPON/A         45  37  73  W5      30.09S
#WASCO DOT      N/A         49  37  63  W9      N/A
#WASCO AIRPORT  N/A         46  36  68  W14     N/A    WCI 40
#WASCO 5NE      N/A         46  37  71  N6      30.06R
$$

ORZ511-281110-
CENTRAL OREGON

CITY            SKY/WX      TMP DP  RH  WIND    PRES   REMARKS
BEND AIRPORT    PTCLDY      37  30  75  S3      30.10F
MADRAS AIRPORT  PTCLDY      43  41  93  CALM    30.13S
PRINEVILLE AP   PTCLDY      32  30  92  CALM    30.10F
REDMOND AIRPORT PTCLDY      37  31  79  S3      30.10F
#ASHWOOD SCHOOL N/A         40  34  79  CALM    30.07R
#BEND 1SW       N/A         33  30  89  N1      N/A
#BEND-AWBREY    N/A         40  34  79  SW7     30.08S
#BEND-KIM LN    N/A         38  33  82  S1      30.07F
#CULVER         N/A         38  32  79  CALM    30.06F
#CULVER 8W      N/A         37  32  82  CALM    30.08F
#LAKE BILLY CHINN/A         41  N/A N/A NW2     30.18S
#MADRAS 4S      N/A         38  20  48  SE5     30.16S
#POWELL BUTTE 3EN/A         35  32  89  E1      N/A
#POWELL BUTTE   N/A         40  32  73  SW2     29.96S
#PRINEVILLE 3N  N/A         34  32  92  E3      30.10R

$$


ORZ509-281110-
EAST SLOPES OF OREGON CASCADES

CITY            SKY/WX      TMP DP  RH  WIND    PRES   REMARKS
SISTERS AWOS    N/A         36  30  79  CALM    30.07F
#BLUE BOX PASS  N/A         36  N/A N/A CALM    N/A
#CAMP SHERMAN   N/A         34  29  82  CALM    30.16S
#LA PINE DOT    N/A         31  27  85  CALM    N/A
#LA PINE 4NW    N/A         30  26  85  CALM    30.12S
#LAVA BUTTE DOT N/A         32  28  85  CALM    N/A
#SISTERS AIRPOR N/A         34  33  96  N2      30.17S
#SISTERS ODOT   N/A         33  N/A N/A CALM    N/A
#SISTERS 1NW    N/A         33  28  82  N5      N/A
#SISTERS 3N     N/A         35  26  69  CALM    30.08S
#SUNRIVER       N/A         30  27  88  CALM    30.12R
#TUMALO 3W      N/A         39  31  73  SW6     29.97F
#WANOGA BUTTE D N/A         33  22  63  CALM    N/A

$$

ORZ044-281110-
LOWER COLUMBIA BASIN...OREGON

CITY            SKY/WX      TMP DP  RH  WIND    PRES   REMARKS
HERMISTON       PTCLDY      48  37  65  SW7     30.07R
#BOARDMAN SCHOOLN/A         51  39  63  SW8     30.06F
#ECHO 8SW       N/A         49  38  66  W5      30.08R
#I-84 EX 198 DOTN/A         50  36  58  E15     N/A
#UMATILLA SCHOOLN/A         46  43  89  CALM    30.12R
#UMATILLA       N/A         47  36  65  CALM    30.01R
$$

ORZ507-281110-
NORTHERN FOOTHILLS OF THE BLUES

CITY            SKY/WX      TMP DP  RH  WIND    PRES   REMARKS
PENDLETON AIRPT CLOUDY      49  34  56  S5      30.08R
#ADAMS 3WNW     N/A         43  37  79  SW2     30.07S
#ATHENA         N/A         46  36  68  S1      30.09S
#CAYUSE         N/A         48  37  65  SW5     30.07S
#HELIX SCHOOL   N/A         44  37  76  S3      30.06R
#HELIX 3N       N/A         44  37  76  S8      30.03S
#HOLDMAN 5SE    N/A         43  36  76  SW1     30.06S
#HOLDMAN 6E     N/A         44  36  73  N5      29.87S
#M-F GROVE ELEM N/A         51  36  56  CALM    30.05S
#M-FREEWATER 5SEN/A         48  37  65  CALM    30.07S
#PENDLETON DNTN N/A         51  30  44  CALM    30.10S
#PDT AQUATIC CTRN/A         50  31  48  CALM    30.11S
#PDT SUNRIDGE   N/A         48  36  63  S1      30.10R
#PENDLETON 7NW  N/A         48  36  63  W3      31.97S
#PILOT ROCK 1S  N/A         47  31  53  S2      30.09S
#PILOT ROCK     N/A         46  33  60  SW3     30.10S
#TUTUILLA       N/A         45  37  73  CALM    30.08S
#UMAPINE 2E     N/A         54  40  59  SW3     30.04S
#WESTON SCHOOL  N/A         47  34  60  N6      29.97F

$$

ORZ508-281110-
SOUTHERN FOOTHILLS OF THE BLUES

CITY            SKY/WX      TMP DP  RH  WIND    PRES   REMARKS
LEXINGTON       PTCLDY      45  37  73  S7      30.11F
#AJAX           N/A         43  30  60  S1      27.82F
#CONDON SCHOOL  N/A         36  32  85  CALM    30.03F
#CONDON 5W      N/A         39  34  82  SW5     30.05S
#FOSSIL SCHOOL  N/A         38  34  85  CALM    30.03F
#HEPPNER EOC    N/A         42  35  76  CALM    30.02S
#HEPPNER 4NE    N/A         41  36  82  CALM    30.08S
#RUGGS 5NE      N/A         36  33  89  SE1     30.20F
#RUGGS 2SW      N/A         38  33  82  SW6     30.10S

$$

ORZ502-503-281110-
BLUE MOUNTAINS

CITY            SKY/WX      TMP DP  RH  WIND    PRES   REMARKS
MEACHAM         PTCLDY      36  31  82  CALM    30.07S
#BATTLE MTN DOT N/A         33  33  100 SE3     N/A
#CUTSFORTH PARK N/A         32  29  89  CALM    29.84S
#GREENHORN 9SW  N/A         32  29  89  CALM    26.27F
#HARDMAN 10S    N/A         61  34  36  N5      30.22S
#HEPPNER 15SE   N/A         33  31  92  CALM    29.97F
#LADD CYN SMT   N/A         40  27  59  W1      N/A
#LADD CREEK ODOTN/A         40  29  64  SW1     N/A
#LONG CREEK HS  N/A         36  35  96  CALM    N/A
#N POWDER DOT   N/A         41  34  76  N8      N/A
#PIKES PEAK     N/A         41  33  73  SW17    27.99S WCI 33
#TOLLGATE       N/A         34  32  92  SW1     29.91S
#TROY SCHOOL    N/A         43  37  79  CALM    29.90S
#UKIAH          N/A         31  29  92  CALM    30.02R
#WESTON 4E      N/A         41  34  76  S6      30.04S
$$

ORZ505-281110-
JOHN DAY BASIN

CITY            SKY/WX      TMP DP  RH  WIND    PRES   REMARKS
JOHN DAY        N/A         N/A N/A N/A MISG    N/A
#DAYVILLE SCHOOLN/A         44  31  60  CALM    30.05F
#MITCHELL       N/A         39  34  82  CALM    30.24S
#MONUMENT HS    N/A         45  34  65  CALM    30.06S
#MT. VERNON 5SE N/A         41  33  73  CALM    30.03F
#SPRAY SCHOOL   N/A         42  N/A N/A CALM    N/A
#WINLOCK        N/A         36  32  85  CALM    30.05S
$$

ORZ506-281110-
OCHOCO AND JOHN DAY HIGHLANDS

CITY            SKY/WX      TMP DP  RH  WIND    PRES   REMARKS
#HORSE RIDGE DO N/A         29  25  85  CALM    N/A
#KEYES SMT DOT  N/A         37  30  75  S2      N/A
#PAULINA SCHOOL N/A         40  31  70  W6      N/A
#PINE MTN OBS   N/A         33  28  82  CALM    N/A
#PRAIRIE CITY   N/A         42  35  76  CALM    30.22F
#SENECA         N/A         35  N/A N/A CALM    N/A
#SENECA 9NW     N/A         30  27  88  CALM    30.03F
$$

ORZ049-281110-
GRANDE RONDE VALLEY

CITY            SKY/WX      TMP DP  RH  WIND    PRES   REMARKS
LA GRANDE       PTCLDY      41  27  57  N9      30.07F
#COVE           N/A         39  35  85  N2      30.11S
#COVE SCHOOL    N/A         39  33  79  CALM    30.10S
#COVE 6NW       N/A         38  32  79  CALM    29.96F
#ELGIN 3N       N/A         39  32  76  CALM    30.05S
#ELGIN 1E       N/A         40  32  73  CALM    N/A
#ISLAND CITY 4N N/A         46  44  93  CALM    30.16F
#LADD CYN DOT   N/A         46  34  63  W3      N/A
#UNION 1S       N/A         42  34  73  E3      29.97F
$$

ORZ050-281110-
WALLOWA COUNTY

CITY            SKY/WX      TMP DP  RH  WIND    PRES   REMARKS
JOSEPH AIRPORT  PTCLDY      32  28  85  S3      N/A
#ENTERPRISE AP  N/A         49  29  46  CALM    30.00F
#ENTERPRISE HS  N/A         33  29  85  CALM    30.09S
#IMNAHA SCHOOL  N/A         43  36  76  SW3     30.08S
#IMNAHA 10S     N/A         38  32  79  SW5     30.06S
#JOSEPH 3N      N/A         30  24  78  CALM    30.08F
#JOSEPH 3W      N/A         33  28  82  SW2     29.88F
#LOSTINE 3SE    N/A         33  29  85  S3      30.06S
#MT HOWARD 8000 N/A         26  22  85  W1      30.01F
#PROMISE 1S     N/A         40  34  79  E3      30.15F
#WALLOWA SCHOOL N/A         35  31  85  CALM    30.04S



$$



USA.gov is the U.S. government's official web portal to all federal, state and local government web resources and services.